2023-001T (55026 NORAD) Tracking and Keplerian Element Data

This shows tracking and keplerian element data for the satellite.

Feedback or suggestion? Click here.




ElementValue
Catalog55026
Name2023-001T
Epoch Orbit169
Epoch Day13.78664001
Epoch Year2023
RAAN75.726
Inclination97.501
Eccentricity0.0012263
Argument of Perigee173.8757
Mean Anonmoly186.2626
Mean Motion15.12408173
Decay Rate0.00011124
L11 55026U 23001T 23013.78664001 .00011124 00000+0 64267-3 0 9991
L22 55026 97.5010 75.7260 0012263 173.8757 186.2626 15.12408173 1690



Live tracking and technical data element details for 2023-001T (NORAD 55026). 2023-001T can be tracked NOW for your location showing map with azimuth and elevation plus other details from your city location.







IsCatalogInMostPopularTable: catalog: 55026, numindb: 3
Update: records affected: 1



GetName: 55026 2023-001T

Hit Count: updated at: Tue, 07 Feb 2023 14:28:08 GMT